Terug naar catalogus

CZ-6A DEB

ActiefPO
NORAD 56586·DEBRIS·🇨🇳 China

Gelanceerd Nov 11, 2022 vanaf Taiyuan Satellite Launch Center

Loading…

Volgende Passages (komende 24 uur)

TLE

VersSource: Space-Track

Epoch: Sep 14, 2026, 03:59 UTC

1 56586U 22151ADJ 26257.16630181  .00014568  00000-0  16466-2 0  9998
2 56586  98.6369 334.8983 0044127 356.1645   3.9223 14.85896498191966

Volg CZ-6A DEB in realtime met AllMySat

Download on the App Store